Location: ??
(35.5052°N, 139.7262°E)
Time: 01:07:44
(UTC+00:00)

Cosmos 1932 - Pass Details

Date: 20 June 2021
Orbit: 942 x 988 km, 65.0° (Epoch: 26 July)

Event Time Altitude Azimuth Distance (km) Brightness Sun altitude
Rises 16:29:56 0° 326° (NW) 3,614 7.9 -25.8°
Reaches altitude 10° 16:32:31 10° 323° (NW) 2,663 7.1 -25.6°
Maximum altitude 16:38:35 59° 246° (WSW) 1,079 4.4 -25.0°
Enters shadow 16:38:57 58° 230° (SW) 1,089 4.4 -25.0°
